• In Netherlands
  • List of Countries
  • For 7 days
  • Water Temperature
  • Satellite Maps
  • Weather Map
  • Weather Widgets
  • user-avatar
    Login

    Hourly Weather Philadelphia

    Today, 23 November, Thursday

    Time Temperature Precipitation Wind Pressure Humidity
    00:00 0°C° 0 mm 3 mps 764 mmHg 56%
    01:00 0°C° 0 mm 3 mps 764 mmHg 57%
    02:00 -1°C° 0 mm 3 mps 764 mmHg 58%
    03:00 -1°C° 0 mm 3 mps 764 mmHg 58%
    04:00 -1°C° 0 mm 3 mps 764 mmHg 59%
    05:00 -1°C° 0 mm 2 mps 764 mmHg 60%
    06:00 -1°C° 0 mm 2 mps 764 mmHg 60%
    07:00 -2°C° 0 mm 2 mps 765 mmHg 61%
    08:00 +1°C° 0 mm 2 mps 765 mmHg 56%
    09:00 +1°C° 0 mm 3 mps 765 mmHg 51%
    10:00 +2°C° 0 mm 3 mps 765 mmHg 47%
    11:00 +3°C° 0 mm 3 mps 764 mmHg 43%
    12:00 +4°C° 0 mm 3 mps 763 mmHg 40%
    13:00 +5°C° 0 mm 3 mps 763 mmHg 36%
    14:00 +6°C° 0 mm 2 mps 762 mmHg 39%
    15:00 +6°C° 0 mm 2 mps 762 mmHg 41%
    16:00 +6°C° 0 mm 2 mps 762 mmHg 43%
    17:00 +5°C° 0 mm 2 mps 762 mmHg 45%
    18:00 +4°C° 0 mm 2 mps 762 mmHg 48%
    19:00 +3°C° 0 mm 2 mps 762 mmHg 51%
    20:00 +3°C° 0 mm 2 mps 762 mmHg 52%
    21:00 +3°C° 0 mm 2 mps 762 mmHg 54%
    22:00 +4°C° 0 mm 1 mps 763 mmHg 55%
    23:00 +4°C° 0 mm 1 mps 763 mmHg 55%

    Tomorrow, 24 November, Friday

    Time Temperature Precipitation Wind Pressure Humidity
    00:00 +3°C° 0 mm 1 mps 763 mmHg 55%
    01:00 +3°C° 0 mm 1 mps 763 mmHg 55%
    02:00 +3°C° 0 mm 1 mps 763 mmHg 55%
    03:00 +3°C° 0 mm 1 mps 762 mmHg 54%
    04:00 +3°C° 0 mm 1 mps 762 mmHg 54%
    05:00 +3°C° 0 mm 1 mps 763 mmHg 54%
    06:00 +3°C° 0 mm 1 mps 763 mmHg 54%
    07:00 +2°C° 0 mm 1 mps 763 mmHg 54%
    08:00 +4°C° 0 mm 1 mps 763 mmHg 49%
    09:00 +6°C° 0 mm 1 mps 763 mmHg 44%
    10:00 +8°C° 0 mm 1 mps 763 mmHg 40%
    11:00 +9°C° 0 mm 1 mps 763 mmHg 38%
    12:00 +9°C° 0 mm 2 mps 762 mmHg 36%
    13:00 +10°C° 0 mm 2 mps 762 mmHg 34%
    14:00 +10°C° 0 mm 2 mps 761 mmHg 37%
    15:00 +9°C° 0 mm 2 mps 761 mmHg 40%
    16:00 +9°C° 0 mm 2 mps 761 mmHg 43%
    17:00 +8°C° 0 mm 2 mps 761 mmHg 47%
    18:00 +7°C° 0 mm 2 mps 761 mmHg 50%
    19:00 +6°C° 0 mm 2 mps 761 mmHg 54%
    20:00 +6°C° 0 mm 2 mps 761 mmHg 57%
    21:00 +5°C° 0 mm 2 mps 760 mmHg 59%
    22:00 +5°C° 0 mm 2 mps 760 mmHg 62%
    23:00 +5°C° 0 mm 2 mps 760 mmHg 64%

    Day after tomorrow, 25 November, Saturday

    Time Temperature Precipitation Wind Pressure Humidity
    00:00 +5°C° 0 mm 2 mps 760 mmHg 66%
    01:00 +5°C° 0 mm 2 mps 759 mmHg 68%
    02:00 +4°C° 0 mm 2 mps 759 mmHg 70%
    03:00 +4°C° 0 mm 2 mps 758 mmHg 73%
    04:00 +4°C° 0 mm 2 mps 757 mmHg 76%
    05:00 +4°C° 0 mm 2 mps 757 mmHg 78%
    06:00 +4°C° 0 mm 2 mps 757 mmHg 80%
    07:00 +4°C° 0 mm 2 mps 757 mmHg 82%
    08:00 +5°C° 0 mm 3 mps 757 mmHg 75%
    09:00 +7°C° 0 mm 3 mps 756 mmHg 67%
    10:00 +9°C° 0 mm 3 mps 756 mmHg 60%
    11:00 +10°C° 0 mm 3 mps 755 mmHg 57%
    12:00 +11°C° 0 mm 3 mps 755 mmHg 55%
    13:00 +12°C° 0 mm 3 mps 754 mmHg 52%
    14:00 +12°C° 0 mm 3 mps 754 mmHg 56%
    15:00 +11°C° 0 mm 3 mps 754 mmHg 59%
    16:00 +12°C° 0 mm 2 mps 754 mmHg 63%
    17:00 +10°C° 0.1 mm 2 mps 754 mmHg 67%
    18:00 +10°C° 0.1 mm 3 mps 754 mmHg 72%
    19:00 +9°C° 0.1 mm 3 mps 755 mmHg 76%
    20:00 +9°C° 0.1 mm 3 mps 755 mmHg 78%
    21:00 +9°C° 0.1 mm 3 mps 755 mmHg 80%
    22:00 +9°C° 0.1 mm 3 mps 755 mmHg 82%
    23:00 +8°C° 0 mm 3 mps 755 mmHg 81%

    26 November, Sunday

    Time Temperature Precipitation Wind Pressure Humidity
    00:00 +6°C° 0 mm 4 mps 755 mmHg 80%
    01:00 +6°C° 0 mm 4 mps 755 mmHg 79%
    02:00 +5°C° 0 mm 4 mps 755 mmHg 78%
    03:00 +5°C° 0 mm 4 mps 755 mmHg 77%
    04:00 +4°C° 0 mm 4 mps 756 mmHg 76%
    05:00 +3°C° 0 mm 5 mps 756 mmHg 73%
    06:00 +3°C° 0 mm 5 mps 757 mmHg 70%
    07:00 +2°C° 0 mm 5 mps 757 mmHg 67%
    08:00 +3°C° 0 mm 6 mps 758 mmHg 62%
    09:00 +3°C° 0 mm 6 mps 758 mmHg 57%
    10:00 +4°C° 0 mm 7 mps 759 mmHg 52%
    11:00 +4°C° 0 mm 7 mps 759 mmHg 49%
    12:00 +4°C° 0 mm 7 mps 759 mmHg 46%
    13:00 +4°C° 0 mm 7 mps 759 mmHg 43%
    14:00 +4°C° 0 mm 7 mps 759 mmHg 44%
    15:00 +3°C° 0 mm 6 mps 760 mmHg 44%
    16:00 +3°C° 0 mm 5 mps 760 mmHg 45%
    17:00 +2°C° 0 mm 5 mps 761 mmHg 48%
    18:00 +3°C° 0 mm 4 mps 762 mmHg 51%
    19:00 +1°C° 0 mm 4 mps 763 mmHg 53%
    20:00 +1°C° 0 mm 4 mps 763 mmHg 55%
    21:00 +1°C° 0 mm 3 mps 763 mmHg 57%
    22:00 +1°C° 0 mm 3 mps 764 mmHg 59%
    23:00 +1°C° 0 mm 3 mps 764 mmHg 62%

    27 November, Monday

    Time Temperature Precipitation Wind Pressure Humidity
    00:00 0°C° 0 mm 3 mps 764 mmHg 64%
    01:00 0°C° 0 mm 3 mps 764 mmHg 66%
    02:00 0°C° 0 mm 3 mps 764 mmHg 68%
    03:00 0°C° 0 mm 3 mps 764 mmHg 69%
    04:00 0°C° 0 mm 3 mps 764 mmHg 71%
    05:00 0°C° 0 mm 3 mps 764 mmHg 71%
    06:00 0°C° 0 mm 3 mps 765 mmHg 71%
    07:00 0°C° 0 mm 3 mps 765 mmHg 71%
    08:00 +1°C° 0 mm 3 mps 765 mmHg 65%
    09:00 +3°C° 0 mm 3 mps 766 mmHg 59%
    10:00 +4°C° 0 mm 3 mps 766 mmHg 54%
    11:00 +5°C° 0 mm 3 mps 765 mmHg 51%
    12:00 +8°C° 0 mm 3 mps 765 mmHg 48%
    13:00 +9°C° 0 mm 3 mps 764 mmHg 46%
    14:00 +9°C° 0 mm 3 mps 764 mmHg 48%
    15:00 +9°C° 0 mm 3 mps 764 mmHg 50%
    16:00 +8°C° 0 mm 2 mps 764 mmHg 52%
    17:00 +7°C° 0 mm 2 mps 764 mmHg 55%
    18:00 +7°C° 0 mm 2 mps 764 mmHg 58%
    19:00 +6°C° 0 mm 2 mps 765 mmHg 61%
    20:00 +5°C° 0 mm 2 mps 765 mmHg 62%
    21:00 +5°C° 0 mm 2 mps 765 mmHg 63%
    22:00 +5°C° 0 mm 2 mps 765 mmHg 64%
    23:00 +5°C° 0 mm 2 mps 765 mmHg 66%

    28 November, Tuesday

    Time Temperature Precipitation Wind Pressure Humidity
    00:00 +5°C° 0 mm 2 mps 764 mmHg 68%
    01:00 +5°C° 0 mm 2 mps 764 mmHg 70%
    02:00 +5°C° 0 mm 2 mps 764 mmHg 73%
    03:00 +5°C° 0 mm 2 mps 764 mmHg 76%
    04:00 +5°C° 0 mm 2 mps 764 mmHg 79%
    05:00 +5°C° 0 mm 2 mps 764 mmHg 80%
    06:00 +4°C° 0 mm 3 mps 764 mmHg 82%
    07:00 +4°C° 0 mm 3 mps 764 mmHg 83%
    08:00 +5°C° 0 mm 3 mps 764 mmHg 75%
    09:00 +7°C° 0 mm 4 mps 764 mmHg 68%
    10:00 +8°C° 0 mm 4 mps 764 mmHg 60%
    11:00 +10°C° 0 mm 4 mps 763 mmHg 55%
    12:00 +12°C° 0 mm 4 mps 762 mmHg 51%
    13:00 +13°C° 0 mm 4 mps 762 mmHg 46%
    14:00 +12°C° 0 mm 4 mps 762 mmHg 48%
    15:00 +12°C° 0 mm 4 mps 761 mmHg 50%
    16:00 +12°C° 0 mm 3 mps 761 mmHg 52%
    17:00 +11°C° 0 mm 3 mps 761 mmHg 56%
    18:00 +11°C° 0 mm 4 mps 762 mmHg 60%
    19:00 +10°C° 0 mm 4 mps 762 mmHg 63%
    20:00 +10°C° 0 mm 4 mps 762 mmHg 65%
    21:00 +10°C° 0 mm 4 mps 762 mmHg 66%
    22:00 +10°C° 0 mm 4 mps 762 mmHg 68%
    23:00 +9°C° 0 mm 3 mps 762 mmHg 68%
    Show more